FW9607 Weather Reports


time (UTC)temp
C
wind
direction
speed
KPH
gust
KPH
rain 1hr
cm
rain 24hr
cm
rain mn
cm
humidity
%
barometer
mb
20260510164816 29 47 4.8 9.7 0.00 0.00 0.00 75 1010.9
20260510164315 29 72 4.8 9.7 0.00 0.00 0.00 75 1011.0
20260510163815 29 108 3.2 11.3 0.00 0.00 0.00 75 1010.9
20260510163315 29 83 4.8 12.9 0.00 0.00 0.00 75 1010.8
20260510162312 28 116 3.2 8.0 0.00 0.00 0.00 75 1010.8
20260510161813 28 88 3.2 8.0 0.00 0.00 0.00 77 1010.9
20260510160813 28 110 3.2 9.7 0.00 0.00 0.00 79 1010.8
20260510160310 28 62 3.2 9.7 0.00 0.00 0.00 77 1010.9
20260510155811 28 349 1.6 8.0 0.00 0.00 0.00 79 1010.9
20260510155310 28 138 3.2 9.7 0.00 0.00 0.00 80 1010.9
20260510154307 27 89 3.2 9.7 0.00 0.00 0.00 82 1010.9
20260510153808 28 90 3.2 9.7 0.00 0.00 0.00 80 1010.9
20260510153307 28 121 3.2 9.7 0.00 0.00 0.00 81 1010.8
20260510152308 28 0 3.2 8.0 0.00 0.00 0.00 80 1010.8
20260510151807 28 155 1.6 9.7 0.00 0.00 0.00 81 1010.8
20260510151307 28 0 1.6 9.7 0.00 0.00 0.00 80 1010.7
20260510150807 27 119 1.6 8.0 0.00 0.00 0.00 82 1010.7
20260510150304 27 182 1.6 8.0 0.00 0.00 0.00 81 1010.8
20260510145802 27 115 1.6 6.4 0.00 0.00 0.00 83 1010.7
20260510145301 26 232 3.2 9.7 0.00 0.00 0.00 85 1010.6
20260510144802 26 153 3.2 9.7 0.00 0.00 0.00 85 1010.5
20260510144302 26 0 3.2 14.5 0.00 0.00 0.00 86 1010.4
20260510143759 26 224 3.2 14.5 0.00 0.00 0.00 87 1010.5
20260510141759 26 143 3.2 6.4 0.00 0.00 0.00 87 1010.4
20260510141259 26 140 3.2 6.4 0.00 0.00 0.00 90 1010.5
20260510140759 25 140 4.8 9.7 0.00 0.00 0.00 92 1010.4
20260510140300 25 179 4.8 11.3 0.00 0.00 0.00 93 1010.5
20260510135800 25 175 4.8 11.3 0.00 0.00 0.00 93 1010.5
20260510135257 25 127 4.8 9.7 0.00 0.00 0.00 93 1010.6
20260510134756 25 149 6.4 11.3 0.00 0.00 0.00 93 1010.6
20260510134301 25 164 9.7 11.3 0.00 0.00 0.00 94 1010.5
20260510133759 25 149 9.7 11.3 0.00 0.00 0.00 95 1010.5
20260510133301 24 151 8.0 9.7 0.00 0.00 0.00 96 1010.4
20260510132759 24 162 8.0 9.7 0.00 0.00 0.00 96 1010.5
20260510132305 24 114 6.4 9.7 0.00 0.00 0.00 96 1010.5
20260510131301 24 166 8.0 11.3 0.00 0.00 0.00 97 1010.5
20260510130758 24 169 8.0 11.3 0.00 0.00 0.00 97 1010.3
20260510130302 23 156 6.4 9.7 0.00 0.00 0.00 98 1010.2
20260510125759 23 156 6.4 9.7 0.00 0.00 0.00 98 1010.1
20260510125301 23 152 6.4 9.7 0.00 0.00 0.00 98 1010.0
20260510124759 23 153 6.4 9.7 0.00 0.00 0.00 98 1009.9
20260510124302 23 152 6.4 6.4 0.00 0.00 0.00 99 1009.9
20260510123759 23 159 6.4 6.4 0.00 0.00 0.00 99 1009.9
20260510123302 22 154 6.4 8.0 0.00 0.00 0.00 99 1009.8
20260510122759 22 152 6.4 9.7 0.00 0.00 0.00 99 1009.8
20260510122251 22 152 8.0 9.7 0.00 0.00 0.00 99 1009.8
20260510121747 22 143 8.0 8.0 0.00 0.00 0.00 99 1009.8
20260510120248 22 145 6.4 8.0 0.00 0.00 0.00 99 1009.7
20260510115744 22 148 6.4 8.0 0.00 0.00 0.00 99 1009.6
20260510115248 22 158 6.4 6.4 0.00 0.00 0.00 99 1009.6
20260510114745 22 139 6.4 6.4 0.00 0.00 0.00 98 1009.5
20260510114248 22 136 6.4 6.4 0.00 0.00 0.00 99 1009.5
20260510113249 22 161 4.8 6.4 0.00 0.00 0.00 98 1009.5
20260510112745 22 144 4.8 6.4 0.00 0.00 0.00 98 1009.5
20260510112249 22 146 4.8 6.4 0.00 0.00 0.00 98 1009.5
20260510111745 22 154 6.4 8.0 0.00 0.00 0.00 98 1009.4
20260510111249 21 152 6.4 8.0 0.00 0.00 0.00 98 1009.4
20260510110730 21 145 4.8 6.4 0.00 0.00 0.00 98 1009.3
20260510105731 21 139 4.8 6.4 0.00 0.00 0.00 98 1009.4
20260510104731 21 140 4.8 6.4 0.00 0.00 0.00 98 1009.3
20260510104234 21 130 4.8 6.4 0.00 0.00 0.00 98 1009.2
20260510103731 21 148 4.8 6.4 0.00 0.00 0.00 98 1009.0
20260510103235 21 143 3.2 6.4 0.00 0.00 0.00 98 1009.1
20260510102731 21 146 3.2 6.4 0.00 0.00 0.00 98 1009.1
20260510102235 21 100 3.2 4.8 0.00 0.00 0.00 98 1009.2
20260510101728 21 146 4.8 6.4 0.00 0.00 0.00 98 1009.2
20260510101233 21 165 3.2 6.4 0.00 0.00 0.00 98 1009.2
20260510100716 21 140 3.2 4.8 0.00 0.00 0.00 98 1009.2
20260510095715 21 144 3.2 4.8 0.00 0.00 0.00 98 1009.2
20260510095215 21 146 3.2 4.8 0.00 0.00 0.00 98 1009.1
20260510094714 21 145 3.2 3.2 0.00 0.00 0.00 98 1009.1
20260510093715 21 152 3.2 6.4 0.00 0.00 0.00 97 1009.0
20260510093215 21 286 4.8 6.4 0.00 0.00 0.00 97 1009.1
20260510092715 21 154 4.8 6.4 0.00 0.00 0.00 97 1009.2
20260510092201 21 148 3.2 6.4 0.00 0.00 0.00 97 1009.2
20260510091701 21 141 3.2 4.8 0.00 0.00 0.00 97 1009.3
20260510091201 21 124 1.6 3.2 0.00 0.00 0.00 97 1009.3
20260510090701 21 103 1.6 3.2 0.00 0.00 0.00 97 1009.2
20260510090201 21 86 1.6 3.2 0.00 0.00 0.00 97 1009.2
20260510085701 21 144 1.6 4.8 0.00 0.00 0.00 97 1009.1
20260510085201 21 142 3.2 4.8 0.00 0.00 0.00 97 1009.1
20260510084701 21 164 3.2 4.8 0.00 0.00 0.00 97 1009.1
20260510084201 21 190 3.2 4.8 0.00 0.00 0.00 97 1009.1
20260510083701 21 224 3.2 4.8 0.00 0.00 0.00 97 1009.1
20260510083202 22 185 3.2 4.8 0.00 0.00 0.00 96 1009.1
20260510082701 22 209 1.6 4.8 0.00 0.00 0.00 96 1009.0
20260510082202 22 183 1.6 6.4 0.00 0.00 0.00 96 1009.2
20260510081701 22 188 3.2 6.4 0.00 0.00 0.00 96 1009.2
20260510081159 22 187 3.2 6.4 0.00 0.00 0.00 96 1009.2
20260510080159 22 176 3.2 4.8 0.00 0.00 0.00 96 1009.4
20260510075159 22 104 3.2 3.2 0.00 0.00 0.00 96 1009.6
20260510074659 22 158 1.6 3.2 0.00 0.00 0.00 96 1009.7
20260510074159 22 70 1.6 4.8 0.00 0.00 0.00 96 1009.7
20260510073659 22 168 1.6 4.8 0.00 0.00 0.00 96 1009.7
20260510073200 22 148 1.6 4.8 0.00 0.00 0.00 96 1009.8
20260510072200 22 157 1.6 4.8 0.00 0.00 0.00 96 1009.8
20260510071700 21 102 1.6 3.2 0.00 0.00 0.00 96 1009.8
20260510071200 21 164 1.6 4.8 0.00 0.00 0.00 96 1009.7
20260510070156 21 142 1.6 3.2 0.00 0.00 0.00 96 1009.7
20260510065657 21 177 1.6 3.2 0.00 0.00 0.00 96 1009.7
20260510065157 21 163 1.6 3.2 0.00 0.00 0.00 96 1009.7
20260510064657 21 0 1.6 3.2 0.00 0.00 0.00 96 1009.7
20260510064154 21 104 1.6 3.2 0.00 0.00 0.00 96 1009.7
20260510063155 21 108 1.6 4.8 0.00 0.00 0.00 96 1009.5
20260510062654 21 94 1.6 4.8 0.00 0.00 0.00 96 1009.3
20260510062155 21 204 1.6 3.2 0.00 0.00 0.00 95 1009.3
20260510061655 21 198 1.6 3.2 0.00 0.00 0.00 95 1009.3
20260510061154 21 182 1.6 3.2 0.00 0.00 0.00 95 1009.4
20260510060654 21 0 1.6 3.2 0.00 0.00 0.00 95 1009.5
20260510060155 21 168 1.6 3.2 0.00 0.00 0.00 95 1009.5
20260510055654 21 192 1.6 4.8 0.00 0.00 0.00 95 1009.5
20260510055152 22 168 1.6 4.8 0.00 0.00 0.00 95 1009.5
20260510054651 22 225 1.6 4.8 0.00 0.00 0.00 95 1009.5
20260510053651 22 210 1.6 4.8 0.00 0.00 0.00 94 1009.5
20260510052649 22 162 1.6 4.8 0.00 0.00 0.00 93 1009.6
20260510052150 22 175 3.2 4.8 0.00 0.00 0.00 93 1009.5
20260510051649 22 177 1.6 4.8 0.00 0.00 0.00 92 1009.6
20260510051148 22 0 0.0 3.2 0.00 0.00 0.00 91 1009.7
20260510045649 23 0 0.0 3.2 0.00 0.00 1.55 90 1009.7
20260510045150 23 124 0.0 3.2 0.00 0.00 1.55 90 1009.7
20260510044650 23 108 0.0 3.2 0.00 0.00 1.55 89 1009.6
20260510044149 23 0 0.0 3.2 0.00 0.00 1.55 89 1009.6
20260510043649 23 0 0.0 4.8 0.00 0.00 1.55 89 1009.5
20260510043147 23 140 0.0 4.8 0.00 0.00 1.55 89 1009.4
20260510042647 23 157 0.0 4.8 0.00 0.00 1.55 89 1009.4
20260510041144 23 0 0.0 3.2 0.00 0.00 1.55 88 1009.2
20260510040144 23 0 1.6 4.8 0.00 0.00 1.55 87 1009.1
20260510035644 23 108 0.0 4.8 0.00 0.00 1.55 87 1009.1
20260510035144 24 86 0.0 3.2 0.00 0.00 1.55 87 1008.9
20260510034644 24 0 0.0 3.2 0.00 0.00 1.55 86 1008.8
20260510033644 24 0 1.6 4.8 0.00 0.00 1.55 85 1008.8
20260510033145 24 93 1.6 8.0 0.00 0.00 1.55 85 1008.8
20260510032641 24 106 3.2 8.0 0.00 0.00 1.55 85 1008.5
20260510032141 24 174 1.6 6.4 0.00 0.00 1.55 85 1008.4
20260510031642 25 200 0.0 4.8 0.00 0.00 1.55 84 1008.4
20260510031142 25 0 1.6 6.4 0.00 0.00 1.55 83 1008.4
20260510030641 25 0 1.6 6.4 0.00 0.00 1.55 82 1008.3
20260510030139 25 191 1.6 6.4 0.00 0.00 1.55 82 1008.2
20260510025638 25 0 1.6 4.8 0.00 0.00 1.55 81 1008.2
20260510025139 25 187 1.6 4.8 0.00 0.00 1.55 80 1008.2
20260510024639 25 0 1.6 8.0 0.00 0.00 1.55 80 1008.2
20260510024140 25 0 1.6 8.0 0.00 0.00 1.55 79 1008.2
20260510023640 25 131 1.6 6.4 0.00 0.00 1.55 78 1008.1
20260510022639 25 126 1.6 4.8 0.00 0.00 1.55 76 1008.0
20260510022139 25 122 1.6 4.8 0.00 0.00 1.55 76 1008.0
20260510021640 25 0 1.6 6.4 0.00 0.00 1.55 75 1007.9
20260510021142 26 191 1.6 6.4 0.00 0.00 1.55 75 1007.9
20260510020638 26 119 1.6 8.0 0.00 0.00 1.55 74 1007.9
20260510020153 26 335 3.2 8.0 0.00 0.00 1.55 73 1007.9
20260510015637 26 300 3.2 6.4 0.00 0.00 1.55 73 1007.8
20260510015137 26 146 1.6 6.4 0.00 0.00 1.55 73 1007.7
20260510014634 26 64 1.6 6.4 0.00 0.00 1.55 72 1007.6
20260510013635 26 86 1.6 9.7 0.00 0.00 1.55 71 1007.5
20260510013139 27 97 3.2 9.7 0.00 0.00 1.55 70 1007.4
20260510012635 27 126 3.2 9.7 0.00 0.00 1.55 70 1007.3
20260510012138 27 97 3.2 8.0 0.00 0.00 1.55 69 1007.3
20260510011635 27 158 3.2 8.0 0.00 0.00 1.55 67 1007.2
20260510011137 27 69 3.2 11.3 0.00 0.00 1.55 65 1007.3
20260510010634 28 126 4.8 12.9 0.00 0.00 1.55 64 1007.2
20260510010136 28 119 4.8 12.9 0.00 0.00 1.55 64 1007.1
20260510005635 28 155 3.2 11.3 0.00 0.00 1.55 65 1007.1
20260510005136 28 110 4.8 11.3 0.00 0.00 1.55 65 1007.1
20260510004131 28 96 4.8 11.3 0.00 0.00 1.55 64 1007.0
20260510003132 28 135 4.8 12.9 0.00 0.00 1.55 62 1007.0
20260510002632 28 126 6.4 14.5 0.00 0.00 1.55 62 1007.0
20260510001632 29 138 4.8 11.3 0.00 0.00 1.55 64 1007.0
20260510001132 29 142 4.8 11.3 0.00 0.00 1.55 66 1007.0
20260510000632 29 135 4.8 12.9 0.00 0.00 1.55 65 1007.0
20260510000132 29 218 6.4 14.5 0.00 0.00 1.55 65 1007.0
20260509235633 30 120 6.4 14.5 0.00 0.00 1.55 64 1006.9
20260509235134 30 78 6.4 17.7 0.00 0.00 1.55 64 1006.9
20260509234131 30 82 6.4 16.1 0.00 0.00 1.55 65 1006.9
20260509233630 30 114 6.4 16.1 0.00 0.00 1.55 62 1006.9
20260509233127 30 105 6.4 14.5 0.00 0.00 1.55 63 1006.9
20260509232126 30 127 6.4 16.1 0.00 0.00 1.55 63 1006.9
20260509231627 30 86 6.4 12.9 0.00 0.00 1.55 62 1006.8
20260509231128 30 130 6.4 14.5 0.00 0.00 1.55 62 1006.9
20260509230632 30 76 8.0 14.5 0.00 0.00 1.55 63 1006.8
20260509225127 30 88 8.0 16.1 0.00 0.00 1.55 62 1006.8
20260509224628 31 93 6.4 14.5 0.00 0.00 1.55 62 1006.9
20260509224125 31 51 6.4 12.9 0.00 0.00 1.55 62 1006.8
20260509223621 31 127 6.4 16.1 0.00 0.00 1.55 62 1006.7
20260509223122 31 113 3.2 16.1 0.00 0.00 1.55 61 1006.7
20260509222119 32 145 1.6 6.4 0.00 0.00 1.55 58 1006.7
20260509221618 32 51 3.2 8.0 0.00 0.00 1.55 55 1006.7
20260509221120 32 201 3.2 12.9 0.00 0.00 1.55 58 1006.7
20260509220619 32 212 4.8 12.9 0.00 0.00 1.55 56 1006.7
20260509220120 32 74 3.2 12.9 0.00 0.00 1.55 57 1006.9
20260509215619 32 183 1.6 8.0 0.00 0.00 1.55 55 1006.9
20260509215121 32 274 3.2 4.8 0.00 0.00 1.55 57 1006.9
20260509214619 31 113 3.2 6.4 0.00 0.00 1.55 59 1006.8
20260509214121 31 168 3.2 9.7 0.00 0.00 1.55 59 1006.9
20260509213619 31 141 3.2 9.7 0.00 0.00 1.55 60 1007.0
20260509213121 32 94 3.2 9.7 0.00 0.00 1.55 59 1006.9
20260509212620 31 172 3.2 11.3 0.00 0.00 1.55 60 1006.9
20260509212119 31 219 3.2 11.3 0.00 0.00 1.55 60 1007.0
20260509211116 32 258 1.6 8.0 0.00 0.00 1.55 60 1007.2
20260509210116 32 188 4.8 11.3 0.00 0.00 1.55 59 1007.2
20260509205614 31 165 4.8 11.3 0.00 0.00 1.55 59 1007.2
20260509205114 32 180 4.8 11.3 0.00 0.00 1.55 58 1007.2
20260509204614 32 203 3.2 11.3 0.00 0.00 1.55 60 1007.2
20260509204113 32 248 3.2 8.0 0.00 0.00 1.55 58 1007.2
20260509203614 32 45 3.2 8.0 0.00 0.00 1.55 56 1007.3
20260509203115 32 243 3.2 8.0 0.00 0.00 1.55 58 1007.3
20260509202614 32 269 3.2 8.0 0.00 0.00 1.55 60 1007.3
20260509202114 32 227 3.2 8.0 0.00 0.00 1.55 60 1007.4
20260509201114 32 147 3.2 6.4 0.00 0.00 1.55 61 1007.6
20260509200612 31 242 4.8 14.5 0.00 0.00 1.55 60 1007.5
20260509200112 31 227 4.8 14.5 0.00 0.00 1.55 61 1007.6
20260509195609 31 192 4.8 12.9 0.00 0.00 1.55 62 1007.6
20260509195109 31 171 3.2 9.7 0.00 0.00 1.55 59 1007.6
20260509194608 31 0 4.8 12.9 0.00 0.00 1.55 60 1007.7
20260509194106 31 207 4.8 12.9 0.00 0.00 1.55 61 1007.7
20260509193605 31 182 4.8 8.0 0.00 0.00 1.55 60 1007.7
20260509193106 31 237 4.8 12.9 0.00 0.00 1.55 61 1007.7
20260509192606 30 251 4.8 12.9 0.00 0.00 1.55 62 1007.7
20260509192106 30 240 4.8 12.9 0.00 0.00 1.55 62 1007.7
20260509191607 30 147 6.4 16.1 0.00 0.00 1.55 61 1007.8
20260509191106 30 225 4.8 16.1 0.00 0.00 1.55 63 1007.8
20260509190606 30 198 3.2 9.7 0.00 0.00 1.55 65 1007.8
20260509190106 30 259 4.8 14.5 0.00 0.00 1.55 65 1007.8
20260509185606 29 248 6.4 14.5 0.00 0.00 1.55 66 1007.9
20260509184103 30 235 4.8 11.3 0.00 0.00 1.55 64 1008.0
20260509183604 30 245 4.8 11.3 0.00 0.00 1.55 64 1008.0
20260509183103 30 229 3.2 14.5 0.00 0.00 1.55 63 1008.1
20260509182605 30 41 4.8 14.5 0.00 0.00 1.55 64 1008.2
20260509182104 30 228 4.8 11.3 0.00 0.00 1.55 66 1008.3
20260509181604 30 255 4.8 11.3 0.00 0.00 1.55 65 1008.3
20260509181104 30 263 3.2 9.7 0.00 0.00 1.55 62 1008.3
20260509180604 30 159 3.2 8.0 0.00 0.00 1.55 62 1008.4
20260509180104 30 63 1.6 6.4 0.00 0.00 1.55 64 1008.5
20260509175604 30 246 1.6 6.4 0.00 0.00 1.55 64 1008.7
20260509175104 29 135 3.2 8.0 0.00 0.00 1.55 62 1008.6
20260509174604 28 219 3.2 9.7 0.00 0.00 1.55 63 1008.6
20260509174104 28 277 3.2 9.7 0.00 0.00 1.55 65 1008.7
20260509173604 28 111 3.2 6.4 0.00 0.00 1.55 65 1008.6
20260509172101 28 186 3.2 6.4 0.00 0.00 1.55 69 1008.7
20260509171559 27 240 3.2 8.0 0.00 0.00 1.55 70 1008.8
20260509171059 28 269 3.2 9.7 0.00 0.00 1.55 69 1008.9
20260509170100 27 177 4.8 11.3 0.00 0.00 1.55 72 1009.1
20260509165059 27 315 3.2 9.7 0.00 0.00 1.55 70 1009.1